Location: Unspecified
(0.0000°N, 0.0000°E)
Time: 05:05:01
(UTC+00:00)

Envisat - Pass Details

Date: 02 August 2020
Orbit: 764 x 766 km, 98.1° (Epoch: 13 August)

Event Time Altitude Azimuth Distance (km) Brightness Sun altitude
Rises 05:26:52 0° 22° (NNE) 3,213 6.9 -9.4°
Reaches altitude 10° 05:29:14 10° 27° (NNE) 2,290 6.2 -8.8°
Maximum altitude 05:34:06 50° 102° (ESE) 970 4.0 -7.7°
Drops below altitude 10° 05:39:00 10° 177° (S) 2,301 5.3 -6.5°
Sets 05:41:22 0° 182° (S) 3,229 6.0 -5.9°
